Showing default

HULIANWANG DIGUI-74, 65306

Orbit data source: Space-Track

HULIANWANG DIGUI-74, 65306 is a payload satellite owned by Zhongguo Xingwang (CN) in LEO that was launched on Mon, 25 Aug 2025 UTC via a CHANG ZHENG 8A launch vehicle from the Wenchang Satellite Launch Center (WSC). Payload-class satellites include a variety of spacecraft equipped with specific instruments for various scientific and technological missions. These include communications satellites like Starlink; space stations such as the ISS; scientific satellites like the Hubble; Earth observation satellites from companies like Planet Labs, Umbra, and HawkEye 360; GPS; miniature CubeSats for education and research; and military/defense satellites.

Loading next visibility...
Identifier
65306, 2025-187B
Orbit
LEO
Country
Flag of CNCN / PRC
Related business
Manufacturer
SECM
Mission
Operational Civil Communications
Bus & Motor
XINGWANG S, Unknown motor
Mass
~800 kg wet, ~800 kg dry
Launch date (UTC)
2025-08-25 (11 months ago)
Launch vehicle
CHANG ZHENG 8A
Launch site
Wenchang Satellite Launch Center (WSC)
Object type
Payload
Rocket body
Debris
Shape & HBR
Box + 2 Pan, 1.1 m
Radar Cross Section
5.935 m², Large (>1 m²)

Expand to show TLE details & history
Last TLE update: 10 hours ago

TLE from 10 hours ago
0 HULIANWANG DIGUI-74
1 65306U 25187B   26192.17815485 -.00000107  00000-0  36278-4 0  9991
2 65306  50.0091 119.7979 0000197 286.9447  73.1404 13.29321385 42896
Epoch: 2026-07-11T04:16Z
TLE epoch observation values (Epoch: 2026-07-11T04:16:32.579Z)
Latitude
0.00003°
Longitude
126.56708°
Altitude
1,149.788 km
Speed
7.279 km/s
True Right ascension
07h 59m 11s
True Declination
0° 00' 00"
Sunlit
Object was in daylight at epoch
Visualization orbit readout
Latitude
Unknown
Longitude
Unknown
Altitude
Unknown
Speed
Unknown
Apparent Right ascension
Unknown
Apparent Declination
Unknown
Sunlit
N/A
Visualization observer readout
Local Sidereal Time
02:57:34
Azimuth
Unknown
Elevation
Unknown
Doppler factor
Unknown
Orbital elements
Apogee altitude
1,150.176 km
Perigee altitude
1,149.88 km
Semi-major axis
7,528.165 km
Eccentricity
0.00002
Inclination
50.0091°
RAAN
119.7979°
Arg. of periapsis
286.9447°
True anomaly
73.14256°
Mean anomaly
73.1404°
Eccentric anomaly
73.14148°
Mean motion
3.32284 °/min
Orbital period
108.34 mins
BSTAR
0.000036278
Loading maneuver chart data...
Computing Atmospheric mass density...
Loading historical data...
Loading historical data...
Loading historical data...
Loading historical data...
Loading historical data...
Loading historical data...
Loading historical data...

Documentation

Showing up to 5 results
|